sat.trackr.live / text

‹ back to catalog

KUIPER-00180

NORAD 67768 · 2026-030E

PAYLOAD ACTIVE UNKNOWN

§ Identity

Operator
Country
US
Launch date
2026-02-12
Launch site
FRGUI
Launch vehicle
Mass (kg)
RCS (m²)

External: N2YO · Heavens-Above · Gunter

§ Orbital elements

Epoch: 2026-05-24T23:10:59.522016Z

Period
97.30 min
Inclination
51.8972°
Eccentricity
0.0000331
Mean motion
14.79936072 rev/d
Perigee alt
629.3 km
Apogee alt
629.8 km
Semi-major
7,007.7 km
B*
-1.2273e-5
RAAN
230.8234°
Arg perigee
94.6944°
Mean anomaly
265.4056°
Rev number
1,654

§ Raw data

KUIPER-001801 67768U 26030E   26144.96596669 -.00000315  00000+0 -12273-4 0  99972 67768  51.8972 230.8234 0000331  94.6944 265.4056 14.79936072 16545

JSON: /api/v1/satellites/67768 · /tle

For live sub-satellite position, see the globe view (requires WebGL).

§ Visibility from observer

Set your observer location to see the next 7 days of passes ≥ 10°. The values pass through the URL so the page stays shareable.

No JS? Fill the form by hand. The geolocation button needs JavaScript.